BAW2231 EGKK-VTBS

Flight info

Callsign BAW2231
Flight time N/A
Altitude 35000
Route ODVIK Y311 DVR UL9 KONAN UL607 FERDI DCT REMBA DCT LIRSU DCT BANUX DCT BABEG DCT KONIN DCT ERKIR DCT KFT DCT PODET DCT ZINPE DCT ETIDA DCT EKSOL/N0478F370 DCT UDROS UM859 KARDE UN644 ROLIN DCT FOQUS DCT LAGAS DCT DISKA M737 VERCA M747 BODKA P130 MAMED/N0478F390 B449 RANAH L750 MERUN G452 LKN R460 TEPAL/N0485F410 R460 CEA DCT DOPID P646 PTN N895 BETNO G463 TARED DCT WILLA WILLA1C
Aircraft B772/H-SDE2E3FGHIJ5LORVWXY/LB1D1

Departure

Time N/A
Airport London Gatwick Airport (EGKK)

Arrival

Time 2026-05-05 16:39
Airport Suvarnabhumi Airport (VTBS)
Time Latitude Longitude Altitude Speed Heading
2026-05-05 15:47 16.39785 95.61190 40896 ft 495 kts 117°
2026-05-05 15:48 16.38212 95.64391 40893 ft 495 kts 117°
2026-05-05 15:48 16.35069 95.70782 40893 ft 495 kts 117°
2026-05-05 15:49 16.31945 95.77128 40893 ft 495 kts 117°
2026-05-05 15:49 16.28796 95.83520 40893 ft 495 kts 117°
2026-05-05 15:50 16.25668 95.89863 40892 ft 495 kts 116°
2026-05-05 15:50 16.22513 95.96255 40894 ft 495 kts 116°
2026-05-05 15:51 16.19362 96.02632 40892 ft 495 kts 117°
2026-05-05 15:51 16.16236 96.08954 40900 ft 494 kts 117°
2026-05-05 15:52 16.13080 96.15331 40893 ft 495 kts 117°
2026-05-05 15:52 16.09938 96.21672 40900 ft 495 kts 117°
2026-05-05 15:53 16.06777 96.28045 40898 ft 495 kts 117°
2026-05-05 15:53 16.03617 96.34412 40894 ft 496 kts 117°
2026-05-05 15:54 16.00468 96.40753 40899 ft 495 kts 117°
2026-05-05 15:54 15.97294 96.47135 40898 ft 495 kts 117°
2026-05-05 15:55 15.94122 96.53509 40899 ft 495 kts 117°
2026-05-05 15:55 15.90974 96.59828 40900 ft 495 kts 117°
2026-05-05 15:56 15.87802 96.66190 40899 ft 494 kts 116°
2026-05-05 15:56 15.84651 96.72503 40898 ft 493 kts 117°
2026-05-05 15:57 15.81488 96.78835 40896 ft 492 kts 117°
2026-05-05 15:57 15.78333 96.85147 40903 ft 491 kts 117°
2026-05-05 15:58 15.75198 96.91414 40901 ft 491 kts 117°
2026-05-05 15:58 15.72040 96.97718 40900 ft 490 kts 117°
2026-05-05 15:59 15.68890 97.04003 40904 ft 490 kts 117°
2026-05-05 15:59 15.65757 97.10249 40904 ft 490 kts 117°
2026-05-05 16:00 15.62602 97.16532 40906 ft 490 kts 117°
2026-05-05 16:00 15.59463 97.22777 40912 ft 490 kts 117°
2026-05-05 16:01 15.56297 97.29072 40910 ft 491 kts 117°
2026-05-05 16:01 15.53150 97.35323 40909 ft 491 kts 117°
2026-05-05 16:02 15.49973 97.41627 40913 ft 491 kts 117°
2026-05-05 16:02 15.46826 97.47867 40907 ft 490 kts 117°
2026-05-05 16:03 15.43659 97.54142 40910 ft 490 kts 117°
2026-05-05 16:03 15.40496 97.60403 40916 ft 489 kts 117°
2026-05-05 16:04 15.37354 97.66617 40913 ft 489 kts 117°
2026-05-05 16:04 15.34189 97.72872 40915 ft 488 kts 117°
2026-05-05 16:05 15.31043 97.79084 40920 ft 488 kts 117°
2026-05-05 16:05 15.27885 97.85315 40923 ft 488 kts 117°
2026-05-05 16:06 15.24743 97.91507 40933 ft 488 kts 117°
2026-05-05 16:06 15.21578 97.97741 40940 ft 488 kts 117°
2026-05-05 16:07 15.18432 98.03933 40931 ft 488 kts 117°
2026-05-05 16:07 15.15261 98.10169 40944 ft 488 kts 117°
2026-05-05 16:08 15.12107 98.16368 40946 ft 488 kts 117°
2026-05-05 16:08 15.08943 98.22589 40951 ft 488 kts 117°
2026-05-05 16:09 15.05829 98.28839 40945 ft 488 kts 116°
2026-05-05 16:09 15.02733 98.35096 40957 ft 488 kts 116°
2026-05-05 16:10 14.99647 98.41314 40954 ft 488 kts 117°
2026-05-05 16:10 14.96532 98.47573 40953 ft 489 kts 117°
2026-05-05 16:11 14.93416 98.53823 40965 ft 489 kts 117°
2026-05-05 16:12 14.87167 98.66344 40962 ft 490 kts 117°
2026-05-05 16:13 14.79348 98.81986 40968 ft 491 kts 117°
2026-05-05 16:13 14.76224 98.88225 40964 ft 491 kts 117°
2026-05-05 16:14 14.69947 99.00747 40959 ft 491 kts 117°
2026-05-05 16:15 14.63652 99.13285 40356 ft 501 kts 117°
2026-05-05 16:16 14.60441 99.19673 38866 ft 500 kts 117°
2026-05-05 16:16 14.57227 99.26062 37134 ft 500 kts 117°
2026-05-05 16:17 14.54033 99.32404 35406 ft 499 kts 117°
2026-05-05 16:17 14.52426 99.35596 34386 ft 503 kts 117°
2026-05-05 16:18 14.49193 99.42010 32058 ft 509 kts 117°
2026-05-05 16:18 14.47550 99.45268 30863 ft 512 kts 117°
2026-05-05 16:18 14.44731 99.51954 29078 ft 502 kts 106°
2026-05-05 16:19 14.43899 99.55385 28229 ft 496 kts 101°
2026-05-05 16:19 14.43389 99.58880 27417 ft 490 kts 94°
2026-05-05 16:19 14.43007 99.65820 25869 ft 478 kts 92°
2026-05-05 16:20 14.42626 99.72622 24309 ft 470 kts 93°
2026-05-05 16:20 14.42213 99.79300 22673 ft 463 kts 93°
2026-05-05 16:21 14.41794 99.85844 21315 ft 448 kts 93°
2026-05-05 16:22 14.41187 99.95312 20904 ft 440 kts 93°
2026-05-05 16:22 14.40786 100.01564 20883 ft 422 kts 93°
2026-05-05 16:23 14.40310 100.07339 20891 ft 400 kts 100°
2026-05-05 16:23 14.39642 100.10135 20899 ft 400 kts 105°
2026-05-05 16:23 14.38088 100.15608 20886 ft 394 kts 105°
2026-05-05 16:24 14.37388 100.18301 20890 ft 392 kts 104°
2026-05-05 16:24 14.36705 100.21017 20891 ft 391 kts 104°
2026-05-05 16:24 14.35380 100.26344 19598 ft 375 kts 104°
2026-05-05 16:25 14.34731 100.28946 18617 ft 373 kts 104°
2026-05-05 16:25 14.33448 100.34067 16544 ft 366 kts 104°
2026-05-05 16:25 14.32816 100.36587 15641 ft 359 kts 104°
2026-05-05 16:26 14.31586 100.41487 13925 ft 345 kts 104°
2026-05-05 16:26 14.30413 100.46158 13404 ft 343 kts 104°
2026-05-05 16:27 14.29812 100.48547 13109 ft 345 kts 104°
2026-05-05 16:27 14.29208 100.50949 12809 ft 342 kts 104°
2026-05-05 16:27 14.28612 100.53321 12512 ft 340 kts 104°
2026-05-05 16:27 14.28025 100.55652 12238 ft 338 kts 104°
2026-05-05 16:28 14.27435 100.57999 11954 ft 337 kts 104°
2026-05-05 16:28 14.26846 100.60337 11676 ft 336 kts 104°
2026-05-05 16:28 14.26259 100.62665 11396 ft 335 kts 104°
2026-05-05 16:28 14.25605 100.64904 11123 ft 320 kts 115°
2026-05-05 16:29 14.24340 100.66674 10814 ft 299 kts 138°
2026-05-05 16:29 14.22668 100.67853 10432 ft 284 kts 153°
2026-05-05 16:29 14.20864 100.68567 10081 ft 274 kts 161°
2026-05-05 16:29 14.19038 100.69147 9729 ft 277 kts 162°
2026-05-05 16:30 14.17202 100.69713 9339 ft 277 kts 162°
2026-05-05 16:30 14.15375 100.70276 8971 ft 271 kts 162°
2026-05-05 16:30 14.13576 100.70835 8658 ft 273 kts 162°
2026-05-05 16:30 14.12363 100.71214 8422 ft 275 kts 162°
2026-05-05 16:31 14.10548 100.71786 8123 ft 266 kts 162°
2026-05-05 16:31 14.08288 100.72501 7786 ft 246 kts 162°
2026-05-05 16:31 14.07218 100.72840 7616 ft 238 kts 162°
2026-05-05 16:31 14.05639 100.73342 7176 ft 234 kts 162°
2026-05-05 16:32 14.04101 100.73831 6815 ft 227 kts 162°
2026-05-05 16:32 14.02625 100.74302 6537 ft 219 kts 162°
2026-05-05 16:32 14.01164 100.74769 6197 ft 219 kts 162°
2026-05-05 16:32 13.99731 100.75226 5910 ft 218 kts 162°
2026-05-05 16:33 13.98281 100.75688 5612 ft 217 kts 162°
2026-05-05 16:33 13.96843 100.76148 5325 ft 216 kts 162°
2026-05-05 16:33 13.95403 100.76607 5030 ft 216 kts 162°
2026-05-05 16:33 13.93964 100.77066 4741 ft 216 kts 162°
2026-05-05 16:34 13.92546 100.77518 4437 ft 216 kts 162°
2026-05-05 16:34 13.91109 100.77976 4154 ft 216 kts 162°
2026-05-05 16:34 13.89690 100.78428 4032 ft 213 kts 162°
2026-05-05 16:34 13.88225 100.78780 3609 ft 218 kts 178°
2026-05-05 16:35 13.86770 100.78586 3295 ft 203 kts 189°
2026-05-05 16:35 13.85446 100.78288 3074 ft 193 kts 192°
2026-05-05 16:35 13.84129 100.77954 2817 ft 196 kts 192°
2026-05-05 16:35 13.82819 100.77609 2539 ft 192 kts 193°
2026-05-05 16:36 13.81547 100.77272 2257 ft 189 kts 193°
2026-05-05 16:36 13.80281 100.76937 2084 ft 185 kts 193°
2026-05-05 16:36 13.79034 100.76609 2010 ft 187 kts 192°
2026-05-05 16:36 13.77759 100.76295 1824 ft 187 kts 193°
2026-05-05 16:37 13.76532 100.75980 1420 ft 177 kts 193°
2026-05-05 16:37 13.75403 100.75666 1119 ft 160 kts 195°
2026-05-05 16:37 13.74391 100.75378 875 ft 140 kts 194°
2026-05-05 16:37 13.73483 100.75146 690 ft 132 kts 193°
2026-05-05 16:38 13.72584 100.74911 486 ft 133 kts 195°
2026-05-05 16:38 13.71683 100.74676 339 ft 134 kts 194°
2026-05-05 16:38 13.70770 100.74428 126 ft 134 kts 195°
2026-05-05 16:38 13.69896 100.74197 20 ft 122 kts 195°
2026-05-05 16:39 13.69223 100.74019 17 ft 74 kts 194°
2026-05-05 16:39 13.68952 100.73964 19 ft 33 kts 179°
2026-05-05 16:39 13.68799 100.73988 19 ft 7 kts 165°
2026-05-05 16:39 13.68751 100.74002 19 ft 7 kts 161°
2026-05-05 16:40 13.68724 100.74042 19 ft 8 kts 103°
2026-05-05 16:40 13.68708 100.74096 18 ft 8 kts 107°
2026-05-05 16:40 13.68689 100.74150 20 ft 8 kts 127°
2026-05-05 16:40 13.68632 100.74154 18 ft 9 kts 182°
2026-05-05 16:41 13.68585 100.74183 18 ft 9 kts 114°
2026-05-05 16:41 13.68570 100.74244 18 ft 9 kts 105°
2026-05-05 16:41 13.68555 100.74303 18 ft 9 kts 105°
2026-05-05 16:41 13.68539 100.74363 18 ft 9 kts 105°
2026-05-05 16:42 13.68519 100.74443 18 ft 16 kts 103°
2026-05-05 16:42 13.68496 100.74550 18 ft 6 kts 102°
2026-05-05 16:42 13.68443 100.74590 18 ft 14 kts 187°
2026-05-05 16:42 13.68414 100.74585 18 ft 2 kts 193°
2026-05-05 16:43 13.68391 100.74580 18 ft 3 kts 193°
2026-05-05 16:43 13.68389 100.74580 18 ft 0 kts 193°